North Vernon, Indiana, United States (47265)
Lat: 39.01N, Lon: 85.62W
Wx Zone: INZ072
Local Info
Past Weather Observations for Thursday, December 18, 2014

NOTE: This archive is for the closest National Weather Service station to North Vernon. Information may differ from the station used for current weather conditions.

Click here for Long-term Archive

Time Weather Temperature Dewpoint Humidity Pressure Winds Precip Visibility
23:53
Overcast
28°F / -2°C 21°F / -6°C 74% 30.24 in
(1024 mb)
NW 4.6 mph
(NW 7 kph)
- 10SM
22:53
Overcast
28°F / -2°C 23°F / -5°C 80% 30.24 in
(1024 mb)
W 4.6 mph
(W 7 kph)
- 8SM
21:53
Overcast
28°F / -2°C 21°F / -6°C 74% 30.24 in
(1024 mb)
W 4.6 mph
(W 7 kph)
- 7SM
20:53
Overcast
28°F / -2°C 21°F / -6°C 74% 30.24 in
(1024 mb)
W 4.6 mph
(W 7 kph)
- 7SM
20:09
Overcast
28°F / -2°C 21°F / -6°C 74% 30.24 in
(1024 mb)
WNW 3.5 mph
(WNW 6 kph)
- 7SM
19:53
Overcast
28°F / -2°C 21°F / -6°C 74% 30.24 in
(1024 mb)
Calm - 7SM
18:53
Overcast
28°F / -2°C 21°F / -6°C 74% 30.24 in
(1024 mb)
Calm - 9SM
17:53
Overcast
28°F / -2°C 21°F / -6°C 74% 30.21 in
(1023 mb)
Calm - 10SM
17:28
Overcast
28°F / -2°C 21°F / -6°C 74% 30.21 in
(1023 mb)
Calm - 10SM
17:18
Overcast
28°F / -2°C 21°F / -6°C 74% 30.21 in
(1023 mb)
Calm - 9SM
17:01
Overcast
28°F / -2°C 21°F / -6°C 74% 30.21 in
(1023 mb)
Calm - 9SM
16:53
Overcast
28°F / -2°C 21°F / -6°C 74% 30.24 in
(1024 mb)
Calm - 9SM
16:03
Overcast
28°F / -2°C 21°F / -6°C 74% 30.21 in
(1023 mb)
Calm - 10SM
15:53
Overcast
28°F / -2°C 21°F / -6°C 74% 30.21 in
(1023 mb)
NW 3.5 mph
(NW 6 kph)
0.00 in
(0.00 mm)
9SM
15:00
Overcast
Light Snow
28°F / -2°C 21°F / -6°C 74% 30.21 in
(1023 mb)
NW 4.6 mph
(NW 7 kph)
0.00 in
(0.00 mm)
6SM
14:53
Overcast
Light Snow
28°F / -2°C 21°F / -6°C 74% 30.21 in
(1023 mb)
N 3.5 mph
(N 6 kph)
0.00 in
(0.00 mm)
2 1/2SM
14:45
Overcast
Light Snow
28°F / -2°C 21°F / -6°C 74% 30.21 in
(1023 mb)
Calm 0.00 in
(0.00 mm)
1 3/4SM
14:23
Overcast
Light Snow
28°F / -2°C 21°F / -6°C 74% 30.24 in
(1024 mb)
Calm 0.00 in
(0.00 mm)
6SM
14:09
Overcast
Light Snow
28°F / -2°C 21°F / -6°C 74% 30.21 in
(1023 mb)
E 3.5 mph
(E 6 kph)
0.00 in
(0.00 mm)
2 1/2SM
14:01
Overcast
28°F / -2°C 21°F / -6°C 74% 30.21 in
(1023 mb)
ENE 3.5 mph
(ENE 6 kph)
- 8SM
13:53
Overcast
28°F / -2°C 21°F / -6°C 74% 30.24 in
(1024 mb)
Calm 0.00 in
(0.00 mm)
9SM
12:53
Overcast
28°F / -2°C 19°F / -7°C 69% 30.27 in
(1025 mb)
SW 5.8 mph
(SW 9 kph)
- 9SM
11:53
Overcast
28°F / -2°C 19°F / -7°C 69% 30.27 in
(1025 mb)
Calm - 10SM
10:53
Overcast
28°F / -2°C 19°F / -7°C 69% 30.27 in
(1025 mb)
Calm - 10SM
09:53
Overcast
27°F / -3°C 19°F / -7°C 74% 30.3 in
(1026 mb)
Calm - 10SM
08:53
Overcast
27°F / -3°C 19°F / -7°C 74% 30.27 in
(1025 mb)
Calm - 10SM
07:53
Overcast
27°F / -3°C 19°F / -7°C 74% 30.27 in
(1025 mb)
Calm - 10SM
06:53
Overcast
27°F / -3°C 19°F / -7°C 74% 30.27 in
(1025 mb)
Calm - 10SM
05:53
Overcast
27°F / -3°C 19°F / -7°C 74% 30.27 in
(1025 mb)
NE 3.5 mph
(NE 6 kph)
- 10SM
04:53
Overcast
27°F / -3°C 18°F / -8°C 69% 30.24 in
(1024 mb)
NE 3.5 mph
(NE 6 kph)
- 10SM
03:53
Overcast
27°F / -3°C 18°F / -8°C 69% 30.27 in
(1025 mb)
NE 3.5 mph
(NE 6 kph)
- 10SM
02:53
Overcast
27°F / -3°C 18°F / -8°C 69% 30.3 in
(1026 mb)
N 3.5 mph
(N 6 kph)
- 10SM
01:53
Overcast
27°F / -3°C 18°F / -8°C 69% 30.27 in
(1025 mb)
N 4.6 mph
(N 7 kph)
- 10SM
00:53
Overcast
27°F / -3°C 18°F / -8°C 69% 30.27 in
(1025 mb)
NW 4.6 mph
(NW 7 kph)
- 10SM
00:22
Overcast
27°F / -3°C 19°F / -7°C 74% 30.3 in
(1026 mb)
NNW 8.1 mph
(NNW 13 kph)
- 10SM
Time Weather Temperature Dewpoint Humidity Pressure Winds Precip Visibility


Weather for websites

WeatherForYou.com, LLC is not responsible for any damages or problems caused by this service. Current weather conditions are obtained from the closest station including government and personal stations which may have varying degrees of accuracy. Weather forecasts are derived from the NOAA NDFD. Like all things, this site belongs to Jesus Christ... He just trusts me to maintain it. If you have any questions or comments email webmaster@weatherforyou.com

Copyright © 2014, WeatherForYou.com LLC. All rights reserved.